Flag for France Weather past 2 weeks in Tours, France

Now
64 °F

Passing clouds.


Feels Like: 64 °F
Forecast: 58 / 74 °F
Wind: 6 mph from South

Location: Tours Airport

Current Time: Aug 28, 2014 at 5:54:22 AM

Latest Report: Aug 28, 2014 at 5:30 AM


Visibility: N/A

Pressure: 29.95 "Hg

Humidity: 88%

Dew point: 61 °F

Location of ToursLocation

Historic Weather in Tours — Graph

°F

Tours temperature yesterday

Maximum temperature yesterday: 73 °F (at 7:30 PM)
Minimum temperature yesterday: 59 °F (at 1:30 AM)
Average temperature yesterday: 65 °F

Past Weeks' High & Low Weather Summary

 TemperatureHumidityPressure
High73 °F (Aug 25, 4:00 PM)100% (Aug 13, 9:00 AM)30.24 "Hg (Aug 13, 9:00 AM)
Low46 °F (Aug 21, 5:00 AM)38% (Aug 19, 5:00 PM)29.68 "Hg (Aug 26, 7:30 AM)
Average62 °F72%30.00 "Hg
* Reported Aug 13 5:00 AM — Aug 28 5:00 AM, Tours, Weather by CustomWeather, © 2014

Note: Actual official high and low records may vary slightly from our data, if they occured in-between our weather recording intervals... More about our weather records

Advertising

Tours weather history for previous 24 hours

 ConditionsComfort  
Time TempWeatherWind HumidityBarometerVisibility
5:00 AM
Aug 28
64 °FPassing clouds.6 mph88%29.98 "HgN/A
4:30 AM64 °FPassing clouds.6 mph88%29.98 "HgN/A
4:00 AM64 °FPassing clouds.5 mph88%29.98 "HgN/A
3:30 AM66 °FPartly cloudy.7 mph83%29.98 "HgN/A
3:00 AM66 °FOvercast.7 mph83%29.98 "HgN/A
2:30 AM66 °FMostly cloudy.7 mph83%29.98 "HgN/A
2:00 AM66 °FPassing clouds.5 mph83%29.98 "HgN/A
1:30 AM64 °FPassing clouds.5 mph83%29.98 "HgN/A
1:00 AM64 °FPassing clouds.3 mph83%29.98 "HgN/A
12:30 AM64 °FPassing clouds.5 mph83%29.98 "HgN/A
12:00 AM64 °FPassing clouds.3 mph83%29.98 "HgN/A
11:30 PM
Aug 27
64 °FPassing clouds.3 mph83%29.98 "HgN/A
11:00 PM64 °FPassing clouds.5 mph83%29.98 "HgN/A
10:30 PM66 °FPartly cloudy.2 mph78%29.98 "HgN/A
10:00 PM68 °FPartly cloudy.2 mph69%30.01 "HgN/A
9:30 PM66 °FSunny.3 mph73%29.98 "Hg10 mi
9:00 PM66 °FSunny.3 mph73%29.98 "Hg10 mi
8:30 PM70 °FPassing clouds.9 mph64%29.98 "HgN/A
8:00 PM70 °FSunny.10 mph64%29.98 "Hg10 mi
7:30 PM73 °FCloudy.7 mph57%29.98 "HgN/A
7:00 PM72 °FPartly sunny.7 mph61%29.98 "HgN/A
6:30 PM72 °FClear.5 mph57%29.98 "HgN/A
6:00 PM72 °FBroken clouds.5 mph57%29.98 "HgN/A
4:30 PM72 °FCloudy.8 mph61%29.98 "HgN/A
4:00 PM72 °FBroken clouds.8 mph57%29.98 "HgN/A
3:30 PM70 °FBroken clouds.6 mph60%30.01 "HgN/A
3:00 PM72 °FOvercast.10 mph57%30.01 "HgN/A
2:30 PM72 °FOvercast.8 mph61%30.01 "HgN/A
2:00 PM70 °FMore clouds than sun.9 mph60%30.01 "HgN/A
1:30 PM70 °FClear.7 mph64%30.01 "HgN/A
1:00 PM68 °FClear.6 mph69%30.01 "HgN/A
12:30 PM66 °FMore clouds than sun.7 mph73%30.01 "HgN/A
12:00 PM66 °FBroken clouds.10 mph73%30.01 "HgN/A
11:30 AM66 °FMostly cloudy.6 mph73%30.01 "HgN/A
11:00 AM64 °FBroken clouds.7 mph83%30.01 "HgN/A
10:30 AM64 °FPartly sunny.6 mph83%29.98 "HgN/A
10:00 AM64 °FOvercast.5 mph83%29.98 "HgN/A
9:30 AM63 °FMore clouds than sun.6 mph88%29.98 "HgN/A
9:00 AM63 °FOvercast.6 mph88%29.98 "HgN/A
8:30 AM61 °FMostly cloudy.7 mph94%29.98 "HgN/A
8:00 AM61 °FPassing clouds.3 mph94%29.95 "HgN/A
7:30 AM61 °FPassing clouds.3 mph94%29.95 "HgN/A
7:00 AM61 °FPartly cloudy.5 mph94%29.95 "HgN/A
6:30 AM61 °FPartly cloudy.6 mph94%29.95 "HgN/A
6:00 AM61 °FPassing clouds.6 mph88%29.95 "HgN/A
5:30 AM61 °FPassing clouds.5 mph88%29.95 "HgN/A
5:00 AM61 °FPassing clouds.3 mph88%29.92 "HgN/A
Weather by CustomWeather, © 2014

See weather overviewHow to use our weather pages